KK4KTV-13 Weather Reports


time (UTC)temp
F
wind
direction
speed
knots
gust
knots
rain 1hr
in
rain 24hr
in
rain mn
in
humidity
%
barometer
mb
20260505130158 0 268 0.9 2.6 0.00 0.00 0.00 1011.1
20260505124648 0 247 0.9 1.7 0.00 0.00 0.00 1011.3
20260505124145 0 261 0.0 1.7 0.00 0.00 0.00 1011.4
20260505123642 0 278 0.9 1.7 0.00 0.00 0.00 1011.5
20260505123139 0 282 0.9 1.7 0.00 0.00 0.00 1011.4
20260505122635 0 287 0.0 0.9 0.00 0.00 0.00 1011.2
20260505122132 0 288 0.9 0.9 0.00 0.00 0.00 1011.2
20260505121628 0 283 0.0 0.9 0.00 0.00 0.00 1011.4
20260505121125 0 290 0.9 1.7 0.00 0.00 0.00 1011.1
20260505120621 0 268 0.0 0.0 0.00 0.00 0.00 1011.1
20260505120117 0 268 0.0 0.9 0.00 0.00 0.00 1011.1
20260505115612 0 296 0.9 0.9 0.00 0.00 0.00 1011.0
20260505115109 0 296 0.0 0.0 0.00 0.00 0.00 1011.1
20260505114606 0 297 0.0 0.0 0.00 0.00 0.00 1011.0
20260505114102 0 297 0.0 0.9 0.00 0.00 0.00 1010.8
20260505113559 0 302 0.0 0.9 0.00 0.00 0.00 1010.8
20260505113055 0 272 0.0 0.0 0.00 0.00 0.00 1010.9
20260505112552 0 272 0.0 0.0 0.00 0.00 0.00 1010.7
20260505112051 0 265 0.0 0.9 0.00 0.00 0.00 1010.8
20260505111550 0 231 0.0 0.0 0.00 0.00 0.00 1010.7
20260505111046 0 255 0.0 0.0 0.00 0.00 0.00 1010.8
20260505110543 0 254 0.0 0.0 0.00 0.00 0.00 1010.8
20260505102015 0 257 0.9 1.7 0.00 0.00 0.00 1010.2
20260505101513 0 291 1.7 1.7 0.00 0.00 0.00 1010.0
20260505101010 0 276 0.0 0.0 0.00 0.00 0.00 1010.0
20260505100507 0 272 1.7 1.7 0.00 0.00 0.00 1010.1
20260505100003 0 286 0.9 1.7 0.00 0.00 0.00 1010.1
20260505095459 0 283 0.9 1.7 0.00 0.00 0.00 1009.8
20260505094955 0 269 0.0 0.0 0.00 0.00 0.00 1009.9
20260505094453 0 269 0.0 0.0 0.00 0.00 0.00 1009.8
20260505093949 0 267 0.9 1.7 0.00 0.00 0.00 1009.9
20260505093446 0 262 0.0 0.0 0.00 0.00 0.00 1009.9
20260505092943 0 257 0.0 1.7 0.00 0.00 0.00 1010.0
20260505092440 0 264 0.9 1.7 0.00 0.00 0.00 1009.9
20260505091938 0 267 0.9 2.6 0.00 0.00 0.00 1009.9
20260505091435 0 267 1.7 3.5 0.00 0.00 0.00 1009.8
20260505090933 0 276 1.7 2.6 0.00 0.00 0.00 1009.9
20260505090431 0 264 3.5 5.2 0.00 0.00 0.00 1009.7
20260505085928 0 225 5.2 6.1 0.00 0.00 0.00 1009.8
20260505085426 0 232 4.3 7.0 0.00 0.00 0.00 1009.7
20260505084924 0 261 3.5 5.2 0.00 0.00 0.00 1009.8
20260505084422 0 246 1.7 5.2 0.00 0.00 0.00 1009.8
20260505083920 0 208 5.2 7.8 0.00 0.00 0.00 1009.6
20260505083417 0 256 2.6 3.5 0.00 0.00 0.00 1009.6
20260505082913 0 216 3.5 5.2 0.00 0.00 0.00 1009.5
20260505082409 0 216 3.5 7.0 0.00 0.00 0.00 1009.6
20260505081906 0 245 3.5 6.1 0.00 0.00 0.00 1009.6
20260505081357 0 268 2.6 3.5 0.00 0.00 0.00 1009.8
20260505080854 0 266 1.7 2.6 0.00 0.00 0.00 1009.7
20260505080350 0 224 1.7 2.6 0.00 0.00 0.00 1009.8
20260505075846 0 243 3.5 5.2 0.00 0.00 0.00 1009.6
20260505075343 0 260 0.9 2.6 0.00 0.00 0.00 1009.7
20260505074840 0 251 0.9 3.5 0.00 0.00 0.00 1009.5
20260505074337 0 199 2.6 5.2 0.00 0.00 0.00 1009.4
20260505073834 0 220 3.5 5.2 0.00 0.00 0.00 1009.4
20260505073332 0 284 1.7 1.7 0.00 0.00 0.00 1009.4
20260505072829 0 262 0.9 1.7 0.00 0.00 0.00 1009.4
20260505072325 0 277 0.9 2.6 0.00 0.00 0.00 1009.4
20260505071821 0 261 1.7 3.5 0.00 0.00 0.00 1009.3
20260505071317 0 263 1.7 2.6 0.00 0.00 0.00 1009.4
20260505070815 0 260 1.7 2.6 0.00 0.00 0.00 1009.6
20260505070311 0 243 0.9 3.5 0.00 0.00 0.00 1009.2
20260505065806 0 237 2.6 5.2 0.00 0.00 0.00 1009.4
20260505065304 0 216 2.6 3.5 0.00 0.00 0.00 1009.3
20260505064801 0 262 2.6 3.5 0.00 0.00 0.00 1009.6
20260505064258 0 222 1.7 3.5 0.00 0.00 0.00 1009.5
20260505063755 0 249 2.6 3.5 0.00 0.00 0.00 1009.5
20260505063252 0 245 1.7 3.5 0.00 0.00 0.00 1009.5
20260505062749 0 224 1.7 5.2 0.00 0.00 0.00 1009.5
20260505062246 0 223 3.5 3.5 0.00 0.00 0.00 1009.8
20260505061743 0 228 4.3 5.2 0.00 0.00 0.00 1009.7
20260505061241 0 245 2.6 3.5 0.00 0.00 0.00 1009.7
20260505060738 0 221 3.5 5.2 0.00 0.00 0.00 1009.6
20260505060235 0 210 6.1 7.8 0.00 0.00 0.00 1009.6
20260505055730 0 244 2.6 5.2 0.00 0.00 0.00 1009.7
20260505055227 0 220 1.7 5.2 0.00 0.00 0.00 1009.8
20260505054724 0 233 2.6 5.2 0.00 0.00 0.00 1009.7
20260505054222 0 239 2.6 3.5 0.00 0.00 0.00 1010.0
20260505053720 0 196 3.5 3.5 0.00 0.00 0.00 1009.7
20260505053216 0 252 1.7 5.2 0.00 0.00 0.00 1009.8
20260505052713 0 234 0.9 1.7 0.00 0.00 0.00 1009.7
20260505052210 0 212 2.6 6.1 0.00 0.00 0.00 1009.9
20260505051707 0 246 2.6 7.0 0.00 0.00 0.00 1009.7
20260505051205 0 228 2.6 3.5 0.00 0.00 0.00 1009.7
20260505050658 0 242 1.7 3.5 0.00 0.00 0.00 1009.8
20260505050155 0 254 1.7 5.2 0.00 0.00 0.00 1009.4
20260505041625 0 217 4.3 7.0 0.00 0.00 0.00 1009.3
20260505041123 0 193 4.3 9.6 0.00 0.00 0.00 1009.4
20260505040619 0 203 4.3 5.2 0.00 0.00 0.00 1009.2
20260505040117 0 237 3.5 7.8 0.00 0.01 0.01 1009.2
20260505035613 0 225 5.2 8.7 0.00 0.01 0.01 1009.2
20260505035109 0 249 2.6 7.0 0.00 0.01 0.01 1009.0
20260505034606 0 243 3.5 7.0 0.00 0.01 0.01 1009.1
20260505034103 0 210 4.3 8.7 0.00 0.01 0.01 1008.8
20260505033600 0 212 5.2 7.8 0.00 0.01 0.01 1008.9
20260505033058 0 221 3.5 9.6 0.00 0.01 0.01 1008.7
20260505032556 0 261 5.2 7.0 0.00 0.01 0.01 1008.9
20260505032051 0 218 5.2 9.6 0.00 0.01 0.01 1008.6
20260505031549 0 234 6.1 8.7 0.00 0.01 0.01 1008.7
20260505031045 0 234 5.2 7.0 0.00 0.01 0.01 1008.5
20260505030542 0 180 7.8 11.3 0.00 0.01 0.01 1008.4
20260505030038 0 204 7.8 8.7 0.00 0.01 0.01 1008.5
20260505025534 0 210 3.5 7.8 0.00 0.01 0.01 1008.6
20260505025033 0 214 2.6 9.6 0.00 0.01 0.01 1008.6
20260505024530 0 236 5.2 7.0 0.00 0.01 0.01 1008.3
20260505024027 0 244 6.1 7.0 0.00 0.01 0.01 1008.2
20260505023524 0 204 2.6 5.2 0.00 0.01 0.01 1008.2
20260505023022 0 177 4.3 7.0 0.00 0.01 0.01 1008.3
20260505022519 0 227 5.2 7.0 0.00 0.01 0.01 1008.3
20260505022016 0 198 3.5 5.2 0.00 0.01 0.01 1008.3
20260505021512 0 214 4.3 5.2 0.00 0.01 0.01 1008.3
20260505021009 0 188 7.0 9.6 0.00 0.01 0.01 1008.1
20260505020503 0 234 7.8 9.6 0.00 0.01 0.01 1008.0
20260505020000 0 206 6.1 7.8 0.00 0.01 0.01 1008.0
20260505015458 0 197 5.2 8.7 0.00 0.01 0.01 1007.8
20260505014954 0 182 6.1 13.0 0.00 0.01 0.01 1007.8
20260505014451 0 234 6.1 8.7 0.00 0.01 0.01 1007.8
20260505013949 0 210 6.1 7.8 0.00 0.01 0.01 1008.0
20260505013446 0 208 6.1 11.3 0.00 0.01 0.01 1007.8
20260505012943 0 194 6.1 7.8 0.00 0.01 0.01 1008.0
20260505012441 0 178 3.5 7.8 0.00 0.01 0.01 1007.9
20260505011938 0 199 5.2 7.0 0.00 0.01 0.01 1008.0
20260505011433 0 203 4.3 8.7 0.00 0.01 0.01 1007.9
20260505010930 0 216 3.5 6.1 0.00 0.01 0.01 1008.1
20260505010426 0 227 4.3 6.1 0.00 0.01 0.01 1008.0
20260505005922 0 205 4.3 6.1 0.00 0.01 0.01 1008.0
20260505005420 0 212 4.3 9.6 0.00 0.01 0.01 1008.0
20260505004917 0 226 6.1 7.8 0.00 0.01 0.01 1008.3
20260505004413 0 219 4.3 6.1 0.00 0.01 0.01 1008.0
20260505003910 0 210 3.5 6.1 0.00 0.01 0.01 1008.2
20260505003407 0 218 3.5 6.1 0.00 0.01 0.01 1008.2
20260505002904 0 224 5.2 7.8 0.00 0.01 0.01 1008.3
20260505002400 0 213 4.3 7.0 0.00 0.01 0.01 1008.2
20260505001859 0 249 5.2 7.0 0.00 0.01 0.01 1008.2
20260505001356 0 229 3.5 6.1 0.00 0.01 0.01 1008.1
20260505000853 0 235 3.5 6.1 0.00 0.01 0.01 1008.2
20260505000351 0 208 2.6 7.0 0.00 0.01 0.01 1008.2
20260504235847 0 214 5.2 6.1 0.00 0.01 0.01 1008.2
20260504235344 0 195 5.2 7.0 0.00 0.01 0.01 1008.2
20260504234840 0 231 4.3 8.7 0.00 0.01 0.01 1008.2
20260504234338 0 226 5.2 7.8 0.00 0.01 0.01 1008.3
20260504233835 0 218 5.2 8.7 0.00 0.01 0.01 1008.4
20260504233330 0 196 5.2 7.8 0.00 0.01 0.01 1008.3
20260504232827 0 216 3.5 6.1 0.00 0.01 0.01 1008.4
20260504232324 0 262 3.5 7.0 0.00 0.01 0.01 1008.6
20260504231821 0 234 4.3 8.7 0.00 0.01 0.01 1008.5
20260504231318 0 219 2.6 5.2 0.00 0.01 0.01 1008.6
20260504230814 0 254 2.6 3.5 0.00 0.01 0.01 1008.6
20260504230312 0 219 6.1 9.6 0.00 0.01 0.01 1008.7
20260504225811 0 248 3.5 7.0 0.00 0.01 0.01 1008.7
20260504225306 0 225 6.1 8.7 0.00 0.01 0.01 1008.5
20260504224804 0 223 4.3 6.1 0.00 0.01 0.01 1008.9
20260504224301 0 205 2.6 3.5 0.00 0.01 0.01 1008.8
20260504223757 0 222 4.3 7.0 0.00 0.01 0.01 1008.8
20260504223253 0 205 7.8 8.7 0.00 0.01 0.01 1008.8
20260504222750 0 251 3.5 9.6 0.00 0.01 0.01 1008.7
20260504222246 0 249 4.3 11.3 0.00 0.01 0.01 1008.7
20260504221744 0 252 5.2 7.8 0.00 0.01 0.01 1008.7
20260504221242 0 255 5.2 7.0 0.00 0.01 0.01 1008.6
20260504220738 0 241 3.5 6.1 0.00 0.01 0.01 1008.8
20260504220235 0 242 3.5 9.6 0.00 0.01 0.01 1008.7
20260504215732 0 208 7.8 12.2 0.00 0.01 0.01 1008.6
20260504215229 0 236 7.0 9.6 0.00 0.01 0.01 1008.6
20260504214725 0 230 8.7 12.2 0.00 0.01 0.01 1008.8
20260504214221 0 236 8.7 11.3 0.00 0.01 0.01 1008.6
20260504213718 0 229 5.2 9.6 0.00 0.01 0.01 1008.6
20260504213215 0 214 7.0 15.6 0.00 0.01 0.01 1008.7
20260504212712 0 222 6.1 13.0 0.00 0.01 0.01 1008.6
20260504212208 0 238 7.8 13.9 0.00 0.01 0.01 1008.5
20260504211706 0 219 8.7 12.2 0.00 0.01 0.01 1008.4
20260504211202 0 221 5.2 8.7 0.00 0.01 0.01 1008.5
20260504210659 0 255 7.0 12.2 0.00 0.01 0.01 1008.3
20260504210156 0 260 5.2 8.7 0.00 0.01 0.01 1008.5
20260504205653 0 240 3.5 7.8 0.00 0.01 0.01 1008.6
20260504205150 0 218 8.7 12.2 0.00 0.01 0.01 1008.6
20260504204649 0 257 7.0 11.3 0.00 0.01 0.01 1008.6
20260504204147 0 231 7.8 12.2 0.00 0.01 0.01 1008.6
20260504203645 0 238 7.0 19.1 0.00 0.01 0.01 1008.6
20260504203143 0 264 4.3 7.0 0.00 0.01 0.01 1008.8
20260504202637 0 240 5.2 12.2 0.00 0.01 0.01 1008.7
20260504202135 0 224 7.0 9.6 0.00 0.01 0.01 1009.0
20260504201631 0 160 3.5 6.1 0.00 0.01 0.01 1008.9
20260504201130 0 254 6.1 8.7 0.00 0.01 0.01 1009.2
20260504200626 0 245 7.0 11.3 0.00 0.01 0.01 1009.4
20260504200123 0 209 8.7 12.2 0.00 0.01 0.01 1009.3
20260504195618 0 179 6.1 8.7 0.00 0.01 0.01 1009.2
20260504195114 0 218 7.0 11.3 0.00 0.01 0.01 1009.6
20260504194612 0 228 6.1 9.6 0.00 0.01 0.01 1009.5
20260504194107 0 267 7.0 11.3 0.00 0.01 0.01 1009.8
20260504193604 0 299 11.3 13.0 0.00 0.01 0.01 1009.9
20260504193103 0 235 4.3 8.7 0.00 0.01 0.01 1009.7
20260504192601 0 249 7.0 8.7 0.00 0.01 0.01 1009.7
20260504192059 0 209 5.2 7.8 0.00 0.01 0.01 1009.9
20260504191556 0 221 3.5 7.8 0.00 0.01 0.01 1010.0
20260504191052 0 221 6.1 7.8 0.00 0.01 0.01 1010.1
20260504190549 0 226 6.1 13.9 0.00 0.01 0.01 1010.3
20260504190045 0 212 8.7 11.3 0.00 0.01 0.01 1010.1
20260504185542 0 260 6.1 11.3 0.00 0.01 0.01 1010.3
20260504185038 0 228 7.0 9.6 0.00 0.01 0.01 1010.2
20260504184534 0 231 6.1 7.8 0.00 0.01 0.01 1010.3
20260504184029 0 221 7.0 9.6 0.00 0.01 0.01 1010.3
20260504183527 0 259 7.0 11.3 0.00 0.01 0.01 1010.2
20260504183025 0 259 6.1 8.7 0.00 0.01 0.01 1010.3
20260504182521 0 249 6.1 12.2 0.00 0.01 0.01 1010.7
20260504182019 0 230 5.2 11.3 0.00 0.01 0.01 1010.7
20260504181516 0 218 7.0 12.2 0.00 0.01 0.01 1010.8
20260504181014 0 240 10.4 13.0 0.00 0.01 0.01 1010.5
20260504180513 0 197 6.1 11.3 0.00 0.01 0.01 1010.7
20260504180011 0 220 5.2 9.6 0.00 0.01 0.01 1010.7
20260504175508 0 217 8.7 11.3 0.00 0.01 0.01 1010.6
20260504175005 0 216 7.8 11.3 0.00 0.01 0.01 1010.8
20260504174503 0 222 7.0 9.6 0.00 0.01 0.01 1010.9
20260504174000 0 226 7.0 13.0 0.00 0.01 0.01 1010.9
20260504173456 0 240 7.0 8.7 0.00 0.01 0.01 1010.8
20260504172954 0 218 5.2 8.7 0.00 0.01 0.01 1010.8
20260504172449 0 261 5.2 7.8 0.00 0.01 0.01 1011.0
20260504171946 0 218 5.2 7.8 0.00 0.01 0.01 1011.1
20260504171443 0 260 9.6 11.3 0.00 0.01 0.01 1011.2
20260504170940 0 193 7.8 9.6 0.00 0.01 0.01 1011.3
20260504170436 0 221 4.3 7.8 0.00 0.01 0.01 1011.3
20260504160356 0 229 7.0 9.6 0.00 0.01 0.01 1011.8
20260504150820 0 212 9.6 14.8 0.00 0.01 0.01 1012.5
20260504150317 0 188 7.0 11.3 0.00 0.01 0.01 1012.6
20260504141247 0 248 5.2 7.0 0.00 0.01 0.01 1013.0
20260504140743 0 193 5.2 6.1 0.00 0.01 0.01 1013.2
20260504140239 0 209 7.0 7.8 0.00 0.01 0.01 1013.2